Home > Weather > Tirunelveli > Past weeks

Flag for India Weather for the Past 2 Weeks in Tirunelveli, Tamil Nadu, India

Now
79 °F

Passing clouds.


Feels Like: 82 °F
Forecast: 71 / 95 °F
Wind: 5 mph from East

Location: Thiruvananthapuram

Current Time: Feb 13, 2016 at 6:42:39 AM

Latest Report: Feb 13, 2016 at 6:00 AM


Visibility: 2 mi

Pressure: 29.83 "Hg

Humidity: 84%

Dew point: 73 °F

Location of TirunelveliLocation

Historic Weather in Tirunelveli — Graph

°F

Tirunelveli Temperature Yesterday

Maximum temperature yesterday: 91 °F (at 4:00 PM)
Minimum temperature yesterday: 79 °F (at 6:30 AM)
Average temperature yesterday: 85 °F

High & Low Weather Summary for the Past Weeks

 TemperatureHumidityPressure
High91 °F (Feb 6, 2:00 PM)94% (Jan 29, 4:30 AM)29.98 "Hg (Jan 29, 4:30 AM)
Low72 °F (Feb 2, 5:30 AM)38% (Jan 30, 10:00 AM)29.65 "Hg (Feb 3, 5:30 PM)
Average83 °F71%29.86 "Hg
* Reported Jan 29 4:30 AM — Feb 13 4:30 AM, Tirunelveli, Weather by CustomWeather, © 2016

Note: Actual official high and low records may vary slightly from our data, if they occured in-between our weather recording intervals... More about our weather records

Advertising

Tirunelveli Weather History for the Previous 24 Hours

 ConditionsComfort  
Time TempWeatherWind HumidityBarometerVisibility
4:30 AM
Sat, Feb 13
79 °FPassing clouds.3 mph84%29.83 "Hg2 mi
3:30 AM79 °FPassing clouds.3 mph89%29.83 "Hg2 mi
3:00 AM81 °FPassing clouds.3 mph84%29.83 "Hg2 mi
2:30 AM81 °FPassing clouds.No wind84%29.83 "Hg2 mi
1:30 AM81 °FPassing clouds.No wind84%29.83 "Hg2 mi
12:30 AM82 °FPassing clouds.3 mph79%29.86 "Hg2 mi
11:30 PM
Fri, Feb 12
84 °FPassing clouds.3 mph79%29.86 "Hg2 mi
10:30 PM84 °FPassing clouds.3 mph79%29.86 "Hg2 mi
9:30 PM84 °FPassing clouds.5 mph74%29.86 "Hg2 mi
8:30 PM84 °FPassing clouds.3 mph74%29.83 "Hg2 mi
8:00 PM84 °FPassing clouds.3 mph74%29.83 "Hg2 mi
7:30 PM86 °FPassing clouds.5 mph70%29.80 "Hg2 mi
7:00 PM86 °FScattered clouds.5 mph70%29.80 "Hg2 mi
6:30 PM86 °FScattered clouds.5 mph70%29.80 "Hg2 mi
6:00 PM88 °FScattered clouds.6 mph66%29.77 "Hg3 mi
5:30 PM88 °FScattered clouds.7 mph62%29.77 "Hg3 mi
5:00 PM90 °FScattered clouds.7 mph63%29.77 "Hg3 mi
4:30 PM90 °FScattered clouds.8 mph59%29.77 "Hg3 mi
4:00 PM91 °FHaze.8 mph49%29.77 "Hg3 mi
3:30 PM90 °FScattered clouds.7 mph52%29.77 "Hg3 mi
2:30 PM90 °FScattered clouds.5 mph67%29.77 "Hg3 mi
2:00 PM90 °FScattered clouds.8 mph67%29.80 "Hg3 mi
1:30 PM88 °FScattered clouds.7 mph70%29.80 "Hg3 mi
1:00 PM88 °FScattered clouds.7 mph70%29.83 "Hg3 mi
12:30 PM90 °FScattered clouds.7 mph67%29.83 "Hg3 mi
12:00 PM90 °FScattered clouds.5 mph67%29.86 "Hg3 mi
11:30 AM88 °FScattered clouds.6 mph70%29.86 "Hg3 mi
11:00 AM88 °FScattered clouds.6 mph70%29.86 "Hg3 mi
10:30 AM86 °FScattered clouds.6 mph70%29.89 "Hg2 mi
10:00 AM86 °FScattered clouds.6 mph70%29.89 "Hg2 mi
9:30 AM86 °FHaze.6 mph70%29.89 "Hg2 mi
9:00 AM86 °FHaze.3 mph70%29.89 "Hg2 mi
8:30 AM84 °FHaze.No wind79%29.89 "Hg2 mi
8:00 AM81 °FHaze.6 mph84%29.86 "Hg1 mi
7:30 AM79 °FScattered clouds.6 mph89%29.86 "Hg1 mi
7:00 AM79 °FPassing clouds.5 mph89%29.86 "Hg2 mi
6:30 AM79 °FPassing clouds.5 mph89%29.86 "Hg2 mi
6:00 AM81 °FPassing clouds.5 mph84%29.83 "Hg2 mi
Weather by CustomWeather, © 2016

See weather overviewHow to use our weather pages